Location: ????????
(55.7667°N, 37.4833°E)
Time: 07:32:16
(UTC+00:00)

CENTAUR R/B - Pass Details

Date: 19 May 2025
Orbit: 644 x 1537 km, 63.4° (Epoch: 23 June)

Event Time Altitude Azimuth Distance (km) Brightness Sun altitude
Rises 21:25:02 0° 310° (NW) 4,059 6.4 -14.3°
Reaches altitude 10° 21:27:36 10° 307° (NW) 3,208 5.7 -14.3°
Maximum altitude 21:35:28 65° 229° (SW) 1,530 3.3 -14.2°
Enters shadow 21:44:31 10° 151° (SSE) 3,660 5.0 -14.2°
